Defiance, OH

12:35 PM EST on January 21, 2018 (GMT -0500)
Defiance Memorial

Weather History for KDFI - February, 2013

Change the Weather History Date:

Saturday, February 16, 2013

  Actual Average Record
Temperature  
Mean Temperature 22 °F -  
Max Temperature 28 °F 35 °F 68 °F (1954)
Min Temperature 15 °F 18 °F -7 °F (1963)
Degree Days  
Heating Degree Days 43    
Moisture  
Dew Point 14 °F    
Average Humidity 70    
Maximum Humidity 86    
Minimum Humidity 50    
Precipitation  
Precipitation 0.00 in - - ()
Sea Level Pressure  
Sea Level Pressure 30.07 in    
Wind  
Wind Speed 5 mph (WNW)    
Max Wind Speed 17 mph    
Max Gust Speed 26 mph    
Visibility 7 miles    
Events Snow    
Averages and records for this station are not official NWS values.
T = Trace of Precipitation, MM = Missing Value Source: NWS Daily Summary

Daily Weather History Graph

Daily Weather History Graph

Search for Another Location

Airport or City:

Trip Planner

Search our weather history database for the weather conditions in past years. The results will help you decide how hot, cold, wet, or windy it might be!

Date:

Astronomy

Feb. 16, 2013 Rise Set
Actual Time 7:30 AM EST 6:13 PM EST
Civil Twilight 7:02 AM EST 6:41 PM EST
Nautical Twilight 6:30 AM EST 7:13 PM EST
Astronomical Twilight 5:58 AM EST 7:45 PM EST
Moon 10:38 AM EST (2/16) 12:16 AM EST (2/16)
Length of Visible Light 11h 38m
Length of Day
10h 42m
Waxing Crescent, 39% of the Moon is Illuminated
Feb 16
Waxing Crescent
Feb 17
First Quarter
Feb 25
Full
Mar 4
Last Quarter
Mar 11
New

Hourly Weather History & Observations

Time (EST) Temp. Windchill Dew Point Humidity Pressure Visibility Wind Dir Wind Speed Gust Speed Precip Events Conditions
12:53 AM 21.9 °F - 15.1 °F 75% 30.15 in 10.0 mi Calm Calm - N/A   Clear
1:53 AM 21.9 °F - 15.1 °F 75% 30.14 in 10.0 mi Calm Calm - N/A   Overcast
2:53 AM 23.0 °F - 17.1 °F 78% 30.12 in 10.0 mi Calm Calm - N/A   Overcast
3:53 AM 23.0 °F - 17.1 °F 78% 30.10 in 10.0 mi Calm Calm - N/A   Overcast
4:34 AM 24.8 °F - 17.6 °F 74% 30.07 in 2.5 mi Calm Calm - 0.00 in Snow Light Snow
4:39 AM 24.8 °F - 17.6 °F 74% 30.07 in 3.0 mi Calm Calm - 0.00 in Snow Light Snow
4:53 AM 24.1 °F - 18.0 °F 77% 30.09 in 9.0 mi Calm Calm - 0.00 in   Overcast
5:53 AM 24.1 °F - 17.1 °F 75% 30.09 in 10.0 mi Calm Calm - 0.00 in   Overcast
6:26 AM 24.8 °F - 17.6 °F 74% 30.05 in 3.0 mi Calm Calm - 0.00 in Snow Light Snow
6:53 AM 21.9 °F - 18.0 °F 85% 30.08 in 10.0 mi Calm Calm - 0.00 in   Mostly Cloudy
7:01 AM 21.2 °F - 17.6 °F 86% 30.05 in 10.0 mi Calm Calm - N/A   Mostly Cloudy
7:49 AM 21.2 °F - 17.6 °F 86% 30.05 in 10.0 mi Calm Calm - N/A   Mostly Cloudy
7:53 AM 21.0 °F - 17.1 °F 85% 30.08 in 10.0 mi Calm Calm - N/A   Overcast
8:24 AM 23.0 °F 17.0 °F 19.4 °F 86% 30.05 in 10.0 mi WSW 4.6 mph - N/A   Overcast
8:53 AM 25.0 °F 17.1 °F 19.0 °F 78% 30.08 in 7.0 mi West 6.9 mph - 0.00 in   Overcast
9:53 AM 25.0 °F 17.1 °F 17.1 °F 72% 30.08 in 10.0 mi WNW 6.9 mph - N/A   Overcast
10:29 AM 26.6 °F 16.2 °F 15.8 °F 64% 30.04 in 10.0 mi NNW 11.5 mph 17.3 mph N/A   Overcast
10:53 AM 26.1 °F 15.0 °F 16.0 °F 66% 30.08 in 7.0 mi NW 12.7 mph 18.4 mph 0.00 in Snow Light Snow
11:17 AM 28.4 °F 18.0 °F 15.8 °F 59% 30.04 in 10.0 mi NW 12.7 mph - 0.00 in   Mostly Cloudy
11:53 AM 25.0 °F 14.2 °F 15.1 °F 66% 30.08 in 10.0 mi NW 11.5 mph 17.3 mph 0.00 in Snow Light Snow
12:05 PM 24.8 °F 16.9 °F 15.8 °F 69% 30.04 in 8.0 mi WNW 6.9 mph - 0.00 in Snow Light Snow
12:53 PM 25.0 °F 16.3 °F 14.0 °F 63% 30.06 in 10.0 mi West 8.1 mph 16.1 mph 0.00 in   Overcast
1:00 PM 24.8 °F 16.1 °F 15.8 °F 69% 30.02 in 2.0 mi West 8.1 mph - 0.00 in Snow Light Snow
1:02 PM 24.8 °F 15.3 °F 15.8 °F 69% 30.02 in 0.8 mi WNW 9.2 mph - 0.00 in Snow Light Snow
1:18 PM 24.8 °F 16.9 °F 15.8 °F 69% 30.02 in 2.0 mi Variable 6.9 mph - 0.00 in Snow Light Snow
1:20 PM 24.8 °F 15.3 °F 15.8 °F 69% 30.02 in 3.0 mi WNW 9.2 mph - 0.00 in Snow Light Snow
1:32 PM 26.6 °F 17.5 °F 12.2 °F 55% 30.01 in 10.0 mi West 9.2 mph 16.1 mph 0.00 in   Overcast
1:53 PM 25.0 °F 17.1 °F 12.0 °F 58% 30.04 in 7.0 mi Variable 6.9 mph 18.4 mph 0.00 in Snow Light Snow
2:07 PM 23.0 °F 12.4 °F 14.0 °F 68% 30.01 in 1.5 mi West 10.4 mph 21.9 mph 0.00 in Snow Light Snow
2:13 PM 23.0 °F 13.1 °F 15.8 °F 74% 30.01 in 0.8 mi WSW 9.2 mph 17.3 mph 0.00 in Snow Light Snow
2:28 PM 23.0 °F 11.1 °F 17.6 °F 80% 30.02 in 1.5 mi WNW 12.7 mph 20.7 mph 0.00 in Snow Light Snow
2:33 PM 23.0 °F 11.7 °F 15.8 °F 74% 30.02 in 2.5 mi NW 11.5 mph 25.3 mph 0.00 in Snow Light Snow
2:41 PM 24.8 °F 15.3 °F 14.0 °F 64% 30.01 in 8.0 mi WNW 9.2 mph 19.6 mph 0.00 in   Overcast
2:53 PM 26.1 °F 15.6 °F 15.1 °F 63% 30.04 in 10.0 mi NW 11.5 mph 18.4 mph 0.00 in   Overcast
3:14 PM 23.0 °F 9.2 °F 15.8 °F 74% 30.02 in 2.5 mi NW 17.3 mph 23.0 mph 0.00 in Snow Light Snow
3:21 PM 24.8 °F 11.9 °F 14.0 °F 64% 30.02 in 5.0 mi NW 16.1 mph 21.9 mph 0.00 in Snow Light Snow
3:38 PM 23.0 °F 10.1 °F 10.4 °F 59% 30.02 in 10.0 mi NW 15.0 mph 25.3 mph 0.00 in   Overcast
3:53 PM 21.9 °F 7.8 °F 12.0 °F 66% 30.06 in 4.0 mi NW 17.3 mph 26.5 mph 0.00 in Snow Light Snow
4:53 PM 23.0 °F 10.6 °F 9.0 °F 55% 30.07 in 10.0 mi NW 13.8 mph 21.9 mph 0.00 in   Overcast
5:53 PM 21.0 °F 7.6 °F 5.0 °F 50% 30.09 in 10.0 mi NW 15.0 mph 20.7 mph N/A   Mostly Cloudy
6:53 PM 19.0 °F 6.1 °F 7.0 °F 59% 30.12 in 10.0 mi WNW 12.7 mph 17.3 mph N/A   Mostly Cloudy
7:53 PM 19.0 °F 7.5 °F 7.0 °F 59% 30.13 in 10.0 mi WNW 10.4 mph - N/A   Overcast
8:53 PM 17.1 °F 5.8 °F 6.1 °F 62% 30.13 in 10.0 mi WNW 9.2 mph - N/A   Partly Cloudy
9:53 PM 16.0 °F 7.4 °F 6.1 °F 65% 30.14 in 10.0 mi West 5.8 mph - N/A   Mostly Cloudy
10:53 PM 16.0 °F 8.8 °F 7.0 °F 68% 30.13 in 10.0 mi Variable 4.6 mph - N/A   Clear
11:53 PM 15.1 °F 7.7 °F 7.0 °F 70% 30.13 in 10.0 mi Variable 4.6 mph - N/A   Clear